Weather History for KVIH - February, 2012

Change the Weather History Date:

Wednesday, February 15, 2012

  Actual Average Record
Temperature  
Mean Temperature 41 °F 36 °F  
Max Temperature 46 °F 46 °F 73 °F (2005)
Min Temperature 36 °F 25 °F 0 °F (1958)
Degree Days  
Heating Degree Days 24 29  
Month to date heating degree days 439 467  
Since 1 July heating degree days 2955 3435  
Cooling Degree Days 0 0  
Month to date cooling degree days 0 0  
Year to date cooling degree days 0 0  
Moisture  
Dew Point 40 °F    
Average Humidity 91    
Maximum Humidity 100    
Minimum Humidity 82    
Precipitation  
Precipitation 0.37 in 0.06 in 0.71 in (1964)
Month to date precipitation 1.57 0.98  
Year to date precipitation 2.70 3.15  
Sea Level Pressure  
Sea Level Pressure 29.95 in    
Wind  
Wind Speed 12 mph (South)    
Max Wind Speed 20 mph    
Max Gust Speed 24 mph    
Visibility 6 miles    
Events Rain    
T = Trace of Precipitation, MM = Missing Value Source: NWS Daily Summary

Daily Weather History Graph

Daily Weather History Graph

Search for Another Location

Airport or City:

Trip Planner

Search our weather history database for the weather conditions in past years. The results will help you decide how hot, cold, wet, or windy it might be!

Date:

Astronomy

Feb. 15, 2012 Rise Set
Actual Time 6:57 AM CST 5:45 PM CST
Civil Twilight 6:30 AM CST 6:12 PM CST
Nautical Twilight 5:59 AM CST 6:43 PM CST
Astronomical Twilight 5:29 AM CST 7:13 PM CST
Moon 1:48 AM CST (2/15) 11:43 AM CST (2/15)
Length of Visible Light 11h 41m
Length of Day
10h 47m
Last Quarter, 38% of the Moon is Illuminated
Feb 15
Last Quarter
Feb 21
New
Feb 29
First Quarter
Mar 8
Full
Mar 14
Last Quarter

Hourly Weather History & Observations

Time (CST) Temp. Windchill Dew Point Humidity Pressure Visibility Wind Dir Wind Speed Gust Speed Precip Events Conditions
12:53 AM 37.0 °F 28.1 °F 32.0 °F 82% 29.98 in 10.0 mi South 15.0 mph - N/A   Mostly Cloudy
1:53 AM 37.0 °F 29.3 °F 32.0 °F 82% 29.97 in 10.0 mi SSE 11.5 mph - N/A   Overcast
2:53 AM 37.0 °F 30.4 °F 33.1 °F 86% 29.97 in 9.0 mi South 9.2 mph - 0.00 in   Overcast
3:53 AM 37.0 °F 28.5 °F 33.1 °F 86% 29.96 in 8.0 mi SSE 13.8 mph - N/A   Scattered Clouds
4:53 AM 37.0 °F 28.9 °F 33.1 °F 86% 29.97 in 8.0 mi South 12.7 mph - N/A   Overcast
5:53 AM 37.0 °F 29.3 °F 34.0 °F 89% 29.97 in 8.0 mi SSE 11.5 mph - N/A   Mostly Cloudy
6:53 AM 37.0 °F 27.7 °F 35.1 °F 93% 29.99 in 6.0 mi South 16.1 mph 19.6 mph 0.01 in Rain Light Rain
7:53 AM 37.9 °F 29.2 °F 37.0 °F 97% 29.96 in 5.0 mi South 15.0 mph - 0.03 in   Overcast
8:13 AM 37.4 °F 30.3 °F 37.4 °F 100% 29.96 in 6.0 mi South 10.4 mph - N/A   Mostly Cloudy
8:28 AM 37.4 °F 31.4 °F 37.4 °F 100% 29.98 in 4.0 mi SW 8.1 mph - N/A   Mostly Cloudy
8:53 AM 37.9 °F 33.5 °F 37.0 °F 97% 30.01 in 3.0 mi WSW 5.8 mph - 0.01 in Rain Light Rain
9:02 AM 37.4 °F 34.9 °F 37.4 °F 100% 29.98 in 2.0 mi SSW 3.5 mph - 0.00 in Rain Light Rain
9:32 AM 37.4 °F 31.4 °F 37.4 °F 100% 29.99 in 2.5 mi South 8.1 mph - 0.02 in Rain Light Rain
9:53 AM 39.0 °F 31.8 °F 37.9 °F 96% 30.01 in 2.0 mi South 11.5 mph - 0.06 in Rain Rain
10:20 AM 41.0 °F 34.7 °F 39.2 °F 93% 29.98 in 4.0 mi South 10.4 mph - 0.03 in Rain Light Rain
10:27 AM 41.0 °F 34.7 °F 39.2 °F 93% 29.98 in 6.0 mi South 10.4 mph - 0.03 in Rain Light Rain
10:53 AM 42.1 °F 34.9 °F 39.9 °F 92% 30.00 in 7.0 mi South 13.8 mph - 0.03 in   Overcast
11:53 AM 43.0 °F 36.0 °F 41.0 °F 93% 29.99 in 5.0 mi South 13.8 mph - 0.00 in Rain Light Rain
12:01 PM 42.8 °F 35.4 °F 41.0 °F 93% 29.98 in 5.0 mi SSW 15.0 mph - 0.00 in Rain Light Rain
12:53 PM 46.0 °F 39.3 °F 44.1 °F 93% 29.95 in 9.0 mi South 16.1 mph - 0.03 in   Overcast
1:16 PM 44.6 °F 38.8 °F 42.8 °F 93% 29.93 in 10.0 mi South 11.5 mph - N/A   Overcast
1:53 PM 44.1 °F 37.4 °F 43.0 °F 96% 29.95 in 3.0 mi South 13.8 mph - 0.03 in Rain Light Rain
2:06 PM 44.6 °F 39.2 °F 42.8 °F 93% 29.92 in 4.0 mi South 10.4 mph - 0.01 in Rain Light Rain
2:53 PM 44.1 °F 38.1 °F 43.0 °F 96% 29.94 in 7.0 mi South 11.5 mph - 0.03 in Rain Light Rain
3:28 PM 44.6 °F 38.1 °F 42.8 °F 93% 29.91 in 6.0 mi South 13.8 mph - 0.02 in Rain Light Rain
3:53 PM 45.0 °F 37.9 °F 44.1 °F 97% 29.87 in 4.0 mi SE 16.1 mph - 0.05 in Rain Light Rain
4:09 PM 44.6 °F 37.8 °F 44.6 °F 100% 29.86 in 7.0 mi SSE 15.0 mph 20.7 mph 0.00 in Rain Light Rain
4:23 PM 44.6 °F 36.9 °F 44.6 °F 100% 29.86 in 10.0 mi SSE 18.4 mph 21.9 mph 0.00 in   Mostly Cloudy
4:53 PM 45.0 °F 38.9 °F 43.0 °F 93% 29.89 in 10.0 mi South 12.7 mph - 0.00 in   Mostly Cloudy
5:37 PM 42.8 °F 36.2 °F 41.0 °F 93% 29.87 in 10.0 mi SSE 12.7 mph - N/A   Scattered Clouds
5:53 PM 43.0 °F 36.8 °F 42.1 °F 97% 29.90 in 10.0 mi SSE 11.5 mph 18.4 mph N/A   Mostly Cloudy
6:53 PM 43.0 °F 38.8 °F 41.0 °F 93% 29.93 in 10.0 mi SSW 6.9 mph - N/A   Overcast
7:28 PM 42.8 °F 37.5 °F 42.8 °F 100% 29.92 in 8.0 mi SSW 9.2 mph - N/A   Overcast
7:53 PM 43.0 °F 39.5 °F 42.1 °F 97% 29.96 in 7.0 mi SW 5.8 mph - N/A   Overcast
8:53 PM 43.0 °F 38.8 °F 42.1 °F 97% 29.97 in 6.0 mi SW 6.9 mph - N/A   Overcast
9:21 PM 42.8 °F 41.1 °F 42.8 °F 100% 29.94 in 2.0 mi SSE 3.5 mph - 0.00 in   Overcast
9:29 PM 42.8 °F - 42.8 °F 100% 29.94 in 1.5 mi Calm Calm - 0.00 in   Overcast
9:53 PM 42.1 °F 36.6 °F 42.1 °F 100% 29.96 in 2.0 mi South 9.2 mph - 0.00 in   Overcast
10:05 PM 42.8 °F 37.5 °F 42.8 °F 100% 29.92 in 3.0 mi SSE 9.2 mph - N/A   Overcast
10:09 PM 42.8 °F 38.6 °F 42.8 °F 100% 29.93 in 2.5 mi SSE 6.9 mph - N/A   Overcast
10:17 PM 42.8 °F 37.5 °F 42.8 °F 100% 29.94 in 1.8 mi South 9.2 mph - 0.00 in Rain Light Rain
10:31 PM 42.8 °F 37.0 °F 42.8 °F 100% 29.94 in 3.0 mi South 10.4 mph - 0.00 in   Overcast
10:53 PM 43.0 °F 36.8 °F 42.1 °F 97% 29.97 in 5.0 mi SW 11.5 mph - 0.01 in Rain Light Rain
11:05 PM 42.8 °F 38.6 °F 42.8 °F 100% 29.95 in 1.8 mi SW 6.9 mph - 0.07 in Rain Heavy Rain
11:12 PM 42.8 °F 37.5 °F 42.8 °F 100% 29.95 in 3.0 mi SW 9.2 mph - 0.08 in Rain Light Rain
11:27 PM 42.8 °F 38.0 °F 42.8 °F 100% 29.95 in 5.0 mi SW 8.1 mph - 0.08 in Rain Light Rain
11:53 PM 43.0 °F 38.2 °F 42.1 °F 97% 29.97 in 5.0 mi WSW 8.1 mph - 0.08 in   Overcast